| time (UTC) | temp C | wind direction | speed KPH | gust KPH | rain 1hr cm | rain 24hr cm | rain mn cm | humidity % | barometer mb |
| 20260507110044 | -3 | 266 | 0.0 | 1.6 | 0.00 | 0.00 | 0.00 | 82 | 1007.7 |
| 20260507104542 | -3 | 266 | 1.6 | 4.8 | 0.00 | 0.00 | 0.00 | 83 | 1007.8 |
| 20260507103040 | -3 | 266 | 3.2 | 4.8 | 0.00 | 0.00 | 0.00 | 83 | 1007.9 |
| 20260507101543 | -3 | 266 | 3.2 | 6.4 | 0.00 | 0.00 | 0.00 | 83 | 1008.1 |
| 20260507100039 | -3 | 308 | 1.6 | 6.4 | 0.00 | 0.00 | 0.00 | 82 | 1008.0 |
| 20260507094536 | -3 | 311 | 3.2 | 4.8 | 0.00 | 0.00 | 0.00 | 79 | 1008.1 |
| 20260507093034 | -2 | 310 | 0.0 | 3.2 | 0.00 | 0.00 | 0.00 | 80 | 1008.0 |
| 20260507091541 | -2 | 310 | 1.6 | 4.8 | 0.00 | 0.00 | 0.00 | 80 | 1008.0 |
| 20260507090036 | -2 | 310 | 0.0 | 3.2 | 0.00 | 0.00 | 0.00 | 78 | 1008.1 |
| 20260507084529 | -1 | 329 | 3.2 | 4.8 | 0.00 | 0.00 | 0.00 | 79 | 1008.2 |
| 20260507083031 | -1 | 332 | 3.2 | 6.4 | 0.00 | 0.00 | 0.00 | 73 | 1008.2 |
| 20260507081521 | 0 | 327 | 1.6 | 4.8 | 0.00 | 0.00 | 0.00 | 73 | 1008.3 |
| 20260507080022 | 0 | 53 | 0.0 | 0.0 | 0.00 | 0.00 | 0.00 | 72 | 1008.3 |
| 20260507074516 | 0 | 53 | 0.0 | 1.6 | 0.00 | 0.00 | 0.00 | 70 | 1008.2 |
| 20260507073013 | 1 | 53 | 1.6 | 4.8 | 0.00 | 0.00 | 0.00 | 69 | 1008.4 |
| 20260507071512 | 1 | 53 | 0.0 | 6.4 | 0.00 | 0.00 | 0.00 | 68 | 1008.5 |
| 20260507070012 | 2 | 71 | 6.4 | 8.0 | 0.00 | 0.00 | 0.00 | 65 | 1008.6 |
| 20260507064508 | 2 | 113 | 0.0 | 16.1 | 0.00 | 0.00 | 0.00 | 64 | 1008.4 |
| 20260507063006 | 2 | 26 | 4.8 | 8.0 | 0.00 | 0.00 | 0.00 | 64 | 1008.6 |
| 20260507061504 | 2 | 154 | 8.0 | 16.1 | 0.00 | 0.00 | 0.00 | 64 | 1008.4 |
| 20260507060004 | 2 | 151 | 14.5 | 22.5 | 0.00 | 0.00 | 0.00 | 63 | 1008.4 |
| 20260507054600 | 2 | 173 | 12.9 | 19.3 | 0.00 | 0.00 | 0.00 | 63 | 1008.5 |
| 20260507053111 | 3 | 150 | 12.9 | 17.7 | 0.00 | 0.00 | 0.00 | 61 | 1008.5 |
| 20260507051555 | 3 | 159 | 12.9 | 22.5 | 0.00 | 0.00 | 0.00 | 62 | 1008.7 |
| 20260507050053 | 3 | 139 | 14.5 | 20.9 | 0.00 | 0.00 | 0.00 | 61 | 1008.6 |
| 20260507044552 | 3 | 135 | 14.5 | 19.3 | 0.00 | 0.00 | 0.00 | 63 | 1008.8 |
| 20260507043050 | 2 | 142 | 11.3 | 16.1 | 0.00 | 0.00 | 0.00 | 64 | 1009.1 |
| 20260507041551 | 3 | 117 | 11.3 | 17.7 | 0.00 | 0.00 | 0.00 | 62 | 1009.3 |
| 20260507040053 | 3 | 109 | 8.0 | 11.3 | 0.00 | 0.00 | 0.00 | 61 | 1009.6 |
| 20260507034549 | 3 | 122 | 8.0 | 12.9 | 0.00 | 0.00 | 0.00 | 59 | 1009.8 |
| 20260507033050 | 4 | 105 | 9.7 | 14.5 | 0.00 | 0.00 | 0.00 | 57 | 1010.0 |
| 20260507031545 | 4 | 90 | 11.3 | 14.5 | 0.00 | 0.00 | 0.00 | 56 | 1009.9 |
| 20260507030045 | 3 | 90 | 8.0 | 11.3 | 0.00 | 0.00 | 0.00 | 58 | 1009.8 |
| 20260507024548 | 3 | 83 | 6.4 | 9.7 | 0.00 | 0.00 | 0.00 | 59 | 1010.0 |
| 20260507023049 | 3 | 86 | 4.8 | 8.0 | 0.00 | 0.00 | 0.00 | 56 | 1010.0 |
| 20260507021546 | 4 | 81 | 4.8 | 9.7 | 0.00 | 0.00 | 0.00 | 55 | 1009.8 |
| 20260507020104 | 5 | 78 | 6.4 | 8.0 | 0.00 | 0.00 | 0.00 | 54 | 1009.9 |
| 20260507014546 | 6 | 69 | 6.4 | 12.9 | 0.00 | 0.00 | 0.00 | 51 | 1009.9 |
| 20260507013051 | 6 | 69 | 4.8 | 8.0 | 0.00 | 0.00 | 0.00 | 50 | 1009.8 |
| 20260507011540 | 7 | 58 | 6.4 | 8.0 | 0.00 | 0.00 | 0.00 | 47 | 1009.8 |
| 20260507010039 | 7 | 54 | 6.4 | 9.7 | 0.00 | 0.00 | 0.00 | 46 | 1009.8 |
| 20260507004550 | 8 | 43 | 3.2 | 4.8 | 0.00 | 0.00 | 0.00 | 45 | 1009.9 |
| 20260507003043 | 8 | 5 | 6.4 | 14.5 | 0.00 | 0.00 | 0.00 | 41 | 1010.0 |
| 20260507001543 | 9 | 11 | 9.7 | 14.5 | 0.00 | 0.00 | 0.00 | 39 | 1010.0 |
| 20260507000036 | 10 | 23 | 12.9 | 20.9 | 0.00 | 0.00 | 0.00 | 37 | 1010.0 |
| 20260506234537 | 10 | 340 | 12.9 | 20.9 | 0.00 | 0.00 | 0.00 | 38 | 1010.2 |
| 20260506233033 | 10 | 11 | 12.9 | 19.3 | 0.00 | 0.00 | 0.00 | 38 | 1010.3 |
| 20260506231531 | 10 | 351 | 16.1 | 27.4 | 0.00 | 0.00 | 0.00 | 37 | 1010.4 |
| 20260506230029 | 10 | 285 | 8.0 | 20.9 | 0.00 | 0.00 | 0.00 | 38 | 1010.6 |
| 20260506224532 | 10 | 304 | 11.3 | 27.4 | 0.00 | 0.00 | 0.00 | 38 | 1010.6 |
| 20260506223036 | 10 | 5 | 16.1 | 25.7 | 0.00 | 0.00 | 0.00 | 38 | 1010.6 |
| 20260506221523 | 10 | 319 | 14.5 | 25.7 | 0.00 | 0.00 | 0.00 | 37 | 1011.0 |
| 20260506220024 | 10 | 313 | 19.3 | 29.0 | 0.00 | 0.00 | 0.00 | 40 | 1011.2 |
| 20260506214535 | 9 | 323 | 11.3 | 27.4 | 0.00 | 0.00 | 0.00 | 41 | 1011.3 |
| 20260506213021 | 9 | 323 | 14.5 | 30.6 | 0.00 | 0.00 | 0.00 | 39 | 1011.5 |
| 20260506211516 | 9 | 334 | 9.7 | 19.3 | 0.00 | 0.00 | 0.00 | 40 | 1011.7 |
| 20260506210116 | 9 | 314 | 20.9 | 27.4 | 0.00 | 0.00 | 0.00 | 40 | 1012.0 |
| 20260506204513 | 8 | 296 | 14.5 | 29.0 | 0.00 | 0.00 | 0.00 | 42 | 1012.1 |
| 20260506203012 | 9 | 309 | 20.9 | 29.0 | 0.00 | 0.00 | 0.00 | 39 | 1012.2 |
| 20260506201511 | 8 | 312 | 16.1 | 29.0 | 0.00 | 0.00 | 0.00 | 41 | 1012.5 |
| 20260506200007 | 8 | 304 | 16.1 | 29.0 | 0.00 | 0.00 | 0.00 | 42 | 1012.7 |
| 20260506194507 | 8 | 347 | 22.5 | 32.2 | 0.00 | 0.00 | 0.00 | 42 | 1012.8 |
| 20260506193005 | 9 | 281 | 19.3 | 33.8 | 0.00 | 0.00 | 0.00 | 42 | 1013.0 |
| 20260506191502 | 8 | 306 | 19.3 | 32.2 | 0.00 | 0.00 | 0.00 | 41 | 1013.0 |
| 20260506190006 | 7 | 261 | 17.7 | 35.4 | 0.00 | 0.00 | 0.00 | 43 | 1013.0 |
| 20260506184611 | 8 | 299 | 17.7 | 33.8 | 0.00 | 0.00 | 0.00 | 42 | 1013.2 |
| 20260506183105 | 7 | 276 | 17.7 | 33.8 | 0.00 | 0.00 | 0.00 | 45 | 1013.3 |
| 20260506181622 | 7 | 286 | 22.5 | 30.6 | 0.00 | 0.00 | 0.00 | 45 | 1013.5 |
| 20260506180058 | 7 | 304 | 17.7 | 29.0 | 0.00 | 0.00 | 0.00 | 45 | 1013.6 |
| 20260506174555 | 7 | 317 | 20.9 | 30.6 | 0.00 | 0.00 | 0.00 | 46 | 1013.9 |
| 20260506173101 | 6 | 321 | 19.3 | 29.0 | 0.00 | 0.00 | 0.00 | 46 | 1014.1 |
| 20260506171552 | 6 | 288 | 16.1 | 30.6 | 0.00 | 0.00 | 0.00 | 48 | 1014.1 |
| 20260506170055 | 6 | 292 | 22.5 | 30.6 | 0.00 | 0.00 | 0.00 | 47 | 1014.4 |
| 20260506164550 | 6 | 277 | 19.3 | 29.0 | 0.00 | 0.00 | 0.00 | 50 | 1014.4 |
| 20260506163050 | 6 | 277 | 17.7 | 29.0 | 0.00 | 0.00 | 0.00 | 49 | 1014.4 |
| 20260506161549 | 6 | 302 | 20.9 | 32.2 | 0.00 | 0.00 | 0.00 | 50 | 1014.5 |
| 20260506160052 | 5 | 295 | 17.7 | 27.4 | 0.00 | 0.00 | 0.00 | 51 | 1014.4 |
| 20260506154543 | 5 | 321 | 16.1 | 25.7 | 0.00 | 0.00 | 0.00 | 53 | 1014.6 |
| 20260506153105 | 5 | 360 | 16.1 | 29.0 | 0.00 | 0.00 | 0.00 | 53 | 1014.6 |
| 20260506151544 | 5 | 321 | 14.5 | 22.5 | 0.00 | 0.00 | 0.00 | 54 | 1014.5 |
| 20260506150046 | 4 | 292 | 16.1 | 24.1 | 0.00 | 0.00 | 0.00 | 55 | 1014.6 |
| 20260506144535 | 4 | 290 | 11.3 | 25.7 | 0.00 | 0.00 | 0.00 | 60 | 1014.6 |
| 20260506143034 | 4 | 291 | 11.3 | 19.3 | 0.00 | 0.00 | 0.00 | 61 | 1014.8 |
| 20260506141531 | 4 | 292 | 14.5 | 20.9 | 0.00 | 0.00 | 0.00 | 60 | 1014.8 |
| 20260506140029 | 3 | 282 | 11.3 | 17.7 | 0.00 | 0.00 | 0.00 | 62 | 1014.9 |
| 20260506134525 | 3 | 254 | 11.3 | 17.7 | 0.00 | 0.00 | 0.00 | 64 | 1014.8 |
| 20260506133022 | 3 | 256 | 11.3 | 16.1 | 0.00 | 0.00 | 0.00 | 68 | 1014.8 |
| 20260506131524 | 2 | 265 | 6.4 | 11.3 | 0.00 | 0.00 | 0.00 | 78 | 1014.6 |
| 20260506130014 | 1 | 284 | 6.4 | 9.7 | 0.00 | 0.00 | 0.00 | 83 | 1014.6 |
| 20260506124509 | 1 | 283 | 3.2 | 6.4 | 0.00 | 0.00 | 0.00 | 84 | 1014.5 |
| 20260506123005 | 0 | 294 | 4.8 | 6.4 | 0.00 | 0.00 | 0.00 | 84 | 1014.3 |
| 20260506121500 | 0 | 259 | 0.0 | 3.2 | 0.00 | 0.00 | 0.00 | 85 | 1014.2 |
| 20260506120058 | 0 | 259 | 1.6 | 3.2 | 0.00 | 0.00 | 0.00 | 85 | 1014.1 |
| 20260506114559 | 0 | 259 | 3.2 | 4.8 | 0.00 | 0.00 | 0.00 | 85 | 1013.8 |
| 20260506113052 | 0 | 259 | 3.2 | 4.8 | 0.00 | 0.00 | 0.00 | 85 | 1013.8 |
| 20260506111551 | 0 | 259 | 1.6 | 4.8 | 0.00 | 0.00 | 0.00 | 85 | 1013.7 |